RH
78 80 80 80 80 80 80 80 80 80 80 80 80 80 80 78 81 47 20 19 22 63 69 33 27 34 38 40 44 47 60 47 43 51 66 61 66 60 47 45 41 40 41 36 39
78 79 80 80 79 79 80 80 80 80 80 81 81 80 80 77 39 21 31 38 43 70 33 24 28 38 39 39 43 51 59 41 35 35 54 76 74 59 58 53 48 48 37 38 40
79 79 80 80 79 80 80 80 80 81 81 81 81 80 83 65 28 10 49 47 56 63 22 17 23 31 36 35 42 42 48 36 33 33 38 55 70 72 57 59 46 48 45 41 42
79 79 79 80 79 78 80 80 81 81 81 81 80 80 84 42 10 20 52 56 62 30 21 19 25 31 31 38 38 52 40 38 32 31 36 43 44 51 62 59 56 44 41 40 41
78 79 79 80 78 80 80 80 82 82 81 80 79 78 59 24 8 32 55 51 30 25 20 20 22 20 26 26 36 50 38 34 29 26 28 35 46 48 52 52 46 42 40 39 38
79 79 80 80 80 80 80 82 83 84 82 80 78 76 34 13 22 26 22 27 23 19 15 16 16 16 18 25 29 30 32 29 23 21 25 38 40 41 46 42 46 44 40 37 38
80 79 79 80 81 81 81 82 82 85 85 80 78 52 28 11 25 19 25 21 17 14 15 14 17 18 18 24 24 28 30 25 26 25 32 37 52 52 47 49 50 43 39 38 37
82 81 79 78 80 81 81 83 86 88 83 80 78 43 19 19 23 22 23 23 15 13 12 16 18 17 18 23 25 26 24 26 28 28 34 36 56 53 51 64 60 46 39 41 40
80 82 82 82 81 85 85 86 83 81 81 79 52 39 18 40 29 18 16 21 15 14 15 15 19 19 21 21 20 21 24 24 33 29 35 38 44 49 50 62 63 73 46 40 42
84 88 87 82 82 87 86 87 80 78 58 44 39 33 24 20 23 20 16 15 16 15 15 16 18 20 19 15 19 21 22 23 23 34 31 34 39 52 50 52 61 72 49 42 40
89 90 87 86 83 88 69 41 34 39 32 17 14 16 16 16 20 20 18 18 16 17 17 15 18 17 16 16 18 16 21 23 21 28 26 23 19 39 45 48 57 71 51 44 39
90 89 89 88 87 89 49 19 19 19 18 16 18 16 15 13 17 19 17 22 20 17 14 17 18 13 15 19 25 22 22 22 20 17 20 17 17 32 33 42 49 66 56 44 39
91 90 87 85 87 66 21 18 17 18 17 14 14 14 12 13 13 22 18 17 20 15 16 15 12 14 24 26 27 22 20 22 21 18 17 21 24 38 39 37 51 49 42 40 39
89 88 86 89 63 24 19 20 17 18 15 14 12 11 12 12 11 15 16 14 17 21 16 12 13 16 22 26 22 22 19 21 22 20 20 17 24 32 43 46 62 60 46 38 38
88 86 88 96 27 18 20 18 15 17 20 12 11 9 10 11 9 15 14 13 19 20 21 17 14 17 22 23 22 22 21 21 21 22 20 17 19 36 33 43 69 65 53 38 43
87 89 86 52 30 18 18 17 16 18 26 14 10 12 12 8 9 12 13 10 13 17 20 18 12 15 19 21 23 21 21 20 20 18 24 17 16 23 27 32 30 43 47 44 36
90 93 80 30 19 21 22 15 18 21 16 17 13 11 10 9 11 12 14 14 18 26 26 20 20 17 18 25 22 23 20 22 22 21 19 14 17 30 26 28 33 34 30 40 37
94 92 67 28 23 25 17 18 30 24 22 16 15 10 12 11 14 14 16 18 15 14 19 20 23 18 18 22 24 24 18 16 28 19 16 17 19 25 24 33 40 40 31 28 37
96 30 17 19 24 21 18 23 31 29 24 22 14 14 16 14 14 17 19 19 19 16 19 19 19 12 12 12 13 22 23 12 14 14 13 15 26 20 23 39 45 53 39 35 37
30 20 19 16 20 18 18 38 29 25 24 22 22 22 18 17 16 16 20 24 23 20 17 16 22 14 13 12 13 15 14 19 16 25 24 17 24 25 36 50 50 65 74 46 40
25 20 17 15 18 18 24 28 26 23 24 26 26 26 28 24 20 24 27 26 26 24 20 15 16 18 15 17 17 15 16 16 12 14 17 21 23 22 44 56 58 58 64 68 71
18 21 16 17 21 21 25 28 46 23 23 26 26 27 29 28 28 30 31 30 28 27 23 19 13 18 18 17 16 17 18 17 17 26 18 16 25 29 38 48 58 56 54 53 55
22 20 16 16 23 26 27 26 25 25 27 26 28 28 30 33 38 30 28 27 27 27 28 24 21 23 21 16 18 18 18 18 16 16 23 17 27 32 38 44 52 50 49 49 48
20 20 19 21 24 25 27 29 30 26 27 27 29 26 28 31 30 35 30 26 25 27 45 28 21 30 19 21 17 23 19 18 16 16 19 18 32 38 39 41 40 43 44 44 46
23 25 31 22 24 24 24 27 30 32 27 27 30 29 31 35 33 35 29 26 24 30 28 24 29 26 25 22 20 19 18 18 20 21 21 23 27 36 38 37 36 34 35 44 46
23 22 22 27 33 25 36 32 31 32 31 34 35 30 31 39 37 38 32 32 33 26 27 23 33 29 30 25 23 22 21 20 18 18 20 20 32 31 36 36 36 37 37 39 41
31 27 25 44 27 23 30 31 33 34 35 33 35 37 39 39 34 32 29 30 31 33 32 32 29 34 27 28 24 23 20 20 20 22 20 22 35 35 36 39 39 35 38 43 41
Wind_Speed
13 14 14 14 14 14 13 13 12 13 12 11 10 8 8 5 7 10 9 1 5 15 12 14 12 11 12 8 4 4 5 7 11 12 9 8 4 5 3 9 3 7 6 23 25
14 14 14 15 15 14 14 14 13 12 12 12 10 8 6 5 9 12 3 6 6 16 19 18 16 16 10 9 5 3 2 11 8 11 11 9 7 7 7 7 5 7 12 23 25
14 14 15 15 15 15 15 14 14 13 12 12 10 8 4 9 8 3 12 11 12 17 15 13 13 14 8 8 7 5 2 3 9 11 10 13 11 8 8 9 8 13 23 26 25
14 14 15 15 16 16 15 15 14 13 12 10 9 8 5 8 1 5 14 14 14 19 16 14 16 13 10 10 8 5 3 1 5 6 6 8 9 9 12 1 6 14 23 27 25
15 15 15 15 15 15 16 15 15 14 12 10 8 6 8 8 2 7 15 16 18 17 19 17 16 12 12 11 8 8 4 2 4 3 2 4 9 4 10 14 13 19 24 25 22
16 15 15 16 16 15 16 17 17 15 13 10 6 4 9 7 4 11 16 19 17 18 17 14 11 7 8 9 11 4 8 6 4 1 6 7 8 9 11 14 17 22 24 23 21
16 16 15 15 16 16 17 17 19 17 13 9 7 7 8 5 2 10 14 15 16 14 16 14 7 12 6 7 7 6 9 8 2 5 8 8 9 6 14 15 19 21 21 21 20
16 16 17 16 16 16 16 18 19 18 9 8 9 7 4 2 6 11 11 13 10 10 10 5 10 8 10 5 8 11 8 12 7 7 6 10 9 14 15 16 17 19 20 19 20
16 17 17 16 16 14 15 16 10 9 11 11 9 7 6 3 12 12 12 15 13 10 7 7 10 11 8 13 11 11 12 12 9 4 8 9 13 14 16 15 15 11 16 18 19
16 16 17 16 15 12 15 12 1 10 9 7 4 7 6 9 12 11 7 13 14 12 11 11 9 10 13 14 14 16 14 11 9 10 9 9 13 13 16 17 15 16 18 18 19
17 16 16 14 14 11 10 5 8 8 8 5 3 3 11 11 13 13 13 13 11 14 13 15 12 17 17 16 8 10 15 14 6 7 6 4 5 10 16 16 18 15 15 18 19
17 15 13 12 12 10 7 6 6 6 5 9 8 6 4 6 12 17 16 12 14 15 14 11 17 15 13 10 9 9 13 10 6 6 7 7 6 8 14 15 16 15 19 19 20
17 14 12 12 11 4 4 4 3 6 7 7 5 7 10 11 15 20 19 10 15 16 16 16 10 10 12 16 14 13 14 12 6 8 5 6 9 9 8 12 11 15 17 18 20
15 14 12 11 5 2 2 3 9 7 7 7 7 8 8 10 9 21 22 12 9 14 15 11 7 15 18 18 16 14 8 4 9 8 10 8 7 9 10 11 10 12 14 16 19
16 14 10 7 5 2 6 9 3 6 6 4 8 4 12 17 20 15 21 12 13 11 10 10 16 18 19 17 15 5 9 12 9 10 2 11 11 10 7 12 10 11 15 17 15
18 13 7 5 4 3 7 5 7 10 6 3 3 12 15 10 8 16 17 12 4 10 15 2 12 14 13 12 13 10 10 8 7 11 11 11 14 9 6 4 1 12 18 17 18
17 14 7 3 5 7 7 8 7 4 1 5 3 12 16 11 9 20 19 16 11 12 13 7 12 11 13 16 15 14 15 9 10 10 9 15 10 12 7 7 6 5 10 19 18
15 7 7 4 7 6 6 7 3 4 7 3 1 8 10 11 7 10 12 11 2 11 14 13 14 15 7 15 13 18 17 8 11 13 13 8 10 9 9 9 9 10 3 15 19
12 5 4 7 4 5 8 6 8 7 7 7 8 10 11 7 7 8 6 6 5 8 7 14 9 6 2 2 8 19 19 12 8 5 13 12 13 13 8 11 14 17 11 2 15
4 3 8 9 4 8 1 7 6 8 6 4 10 5 8 7 10 7 3 5 3 7 7 1 7 3 3 5 2 7 12 11 9 13 14 12 18 11 8 11 14 17 18 14 4
5 4 8 7 7 2 5 6 5 9 6 7 4 8 3 5 5 3 4 7 6 5 5 6 7 10 9 3 4 10 10 11 12 9 12 10 8 6 8 11 12 14 15 17 21
4 1 9 5 2 3 8 5 3 9 6 4 5 6 8 2 7 3 6 6 8 5 2 6 6 10 8 5 3 3 5 9 11 13 8 8 10 7 9 13 11 13 14 16 17
3 5 8 7 3 7 6 8 10 10 11 4 5 6 3 3 4 6 5 4 7 3 4 4 2 9 11 9 5 3 2 4 9 9 16 11 11 10 10 13 13 14 14 14 16
2 1 5 6 4 5 7 7 5 7 10 8 5 1 3 5 3 8 7 4 3 7 5 6 4 6 2 8 7 8 3 1 9 12 8 5 20 13 11 12 13 14 13 14 15
4 5 4 4 7 8 7 3 6 3 5 4 5 5 3 3 6 6 4 6 4 4 1 6 5 5 6 6 4 3 3 2 1 5 7 18 16 13 11 11 11 11 13 13 15
2 0 4 6 2 6 4 6 7 7 4 8 8 8 5 7 6 7 4 0 4 2 2 4 4 5 4 1 1 5 3 2 2 3 6 12 15 10 8 8 8 9 10 12 13
2 2 5 1 3 1 8 5 5 4 8 7 5 5 7 6 5 5 4 4 4 4 2 2 5 7 9 3 3 9 10 5 6 2 1 10 14 4 7 5 6 6 6 10 12
Wind_Direction
349 348 347 345 342 341 339 337 337 335 336 335 331 324 310 298 267 220 236 144 181 168 214 153 169 174 187 199 224 229 264 77 48 65 110 138 131 133 145 149 179 157 124 146 145
347 346 344 342 339 337 335 333 333 333 332 330 328 319 312 287 256 248 173 141 164 175 178 171 166 168 193 199 196 239 279 68 39 67 123 151 161 130 126 142 164 136 138 142 152
345 344 342 339 336 333 331 329 328 329 329 326 325 317 294 274 265 142 165 175 178 189 178 184 166 187 179 196 191 186 150 86 68 65 117 137 159 156 171 186 175 159 150 156 158
342 342 338 335 331 328 326 325 323 322 322 319 316 306 274 244 255 76 152 164 175 195 176 178 182 190 193 198 184 234 197 306 73 81 131 155 159 183 150 59 177 156 160 157 163
337 333 332 328 325 325 323 320 317 313 309 305 302 289 251 224 284 72 151 154 172 187 185 180 186 197 203 202 186 212 224 222 186 202 203 148 173 181 169 135 154 150 159 163 166
331 331 330 327 324 323 322 317 310 304 296 286 272 254 251 241 15 134 147 156 172 189 186 192 198 196 221 218 222 163 235 257 265 117 141 177 151 172 146 131 140 155 162 166 172
328 327 327 325 322 323 319 315 306 294 280 259 231 234 251 22 34 145 155 162 166 187 185 201 218 202 156 180 213 221 236 198 188 147 145 178 148 142 135 148 152 164 167 167 177
327 324 324 324 321 320 320 317 307 285 244 213 204 215 285 62 166 163 156 146 155 181 201 156 225 211 231 92 197 220 233 198 133 180 134 227 124 127 143 150 160 171 173 174 181
327 321 322 322 321 321 321 317 325 94 140 165 194 239 135 163 166 165 176 165 160 148 165 191 210 215 172 206 189 200 204 211 137 217 147 233 123 137 156 158 160 168 192 182 183
322 319 317 321 323 322 316 294 225 149 151 187 265 225 173 182 150 156 189 165 169 153 151 186 205 209 215 204 198 187 230 185 161 166 194 184 113 147 169 175 173 179 204 188 187
321 317 318 318 323 323 289 194 196 173 211 281 108 345 137 107 143 169 159 165 177 187 186 193 203 209 196 210 304 184 209 181 123 164 206 160 143 161 173 184 169 190 204 191 193
315 315 316 323 324 317 240 264 31 7 275 213 248 254 216 168 151 167 175 170 180 188 188 176 219 199 198 193 178 195 196 177 141 132 254 152 176 135 186 188 187 183 197 197 193
320 322 323 317 313 227 273 16 316 308 255 136 185 227 184 197 172 167 192 184 197 194 196 205 192 169 197 194 195 196 207 166 200 166 202 220 183 165 178 188 167 186 193 198 191
326 325 322 311 264 135 175 321 292 225 250 114 172 180 179 204 174 167 194 192 194 204 205 232 143 181 196 198 208 193 214 169 191 216 206 222 163 164 145 168 173 195 201 198 197
330 324 318 274 341 235 3 316 238 225 209 95 129 102 159 203 134 172 190 204 202 196 199 197 195 193 194 199 207 161 177 203 206 217 259 190 263 112 165 156 178 214 205 207 192
329 321 303 204 227 360 296 286 226 231 90 102 138 169 173 173 177 148 185 233 302 192 215 233 206 196 194 183 203 113 170 171 200 220 214 201 236 105 83 35 93 196 195 216 193
328 312 235 286 350 323 290 234 218 348 164 52 73 177 178 157 150 161 180 195 206 191 192 172 190 178 209 185 193 195 186 172 194 198 227 180 221 67 79 44 6 297 246 204 203
323 300 194 297 307 291 242 230 57 53 21 20 150 191 130 138 117 141 162 165 104 284 175 190 166 183 192 216 187 208 209 215 200 201 175 155 219 105 77 51 28 2 289 211 195
322 203 354 9 339 263 249 47 24 8 360 339 185 167 139 122 146 127 91 74 35 349 285 195 120 121 11 245 273 185 227 253 281 292 204 162 92 106 71 52 40 25 23 173 189
265 237 33 351 301 249 58 83 76 20 329 288 131 295 177 125 160 148 132 40 34 15 318 253 134 222 100 209 171 290 216 209 239 183 220 165 168 86 45 34 39 39 18 19 171
240 243 29 353 255 352 60 67 49 49 5 17 59 139 14 103 67 80 53 81 13 345 328 300 262 142 197 252 196 190 209 239 239 261 220 159 123 67 57 47 45 46 34 29 32
309 252 18 296 67 36 54 16 324 19 45 82 62 51 89 70 91 86 106 35 351 304 30 6 303 166 110 109 324 317 328 245 224 195 258 277 97 95 81 76 65 54 50 40 40
30 25 29 281 95 96 105 88 43 32 31 44 51 47 35 104 113 117 122 54 4 23 16 359 325 153 168 170 179 185 139 262 275 288 215 241 115 118 104 92 78 69 60 54 51
295 134 78 57 24 80 115 63 107 37 51 53 39 80 159 92 85 147 133 77 36 34 346 258 124 357 315 62 106 154 127 4 260 234 211 234 127 132 111 95 88 87 66 54 52
343 67 348 42 62 70 79 72 85 94 68 14 54 42 0 138 117 122 132 149 95 33 285 316 146 127 70 65 65 100 107 43 3 335 274 131 134 118 107 92 80 73 78 63 44
7 61 92 80 78 109 137 70 78 89 359 61 87 59 58 85 2 136 151 49 37 356 354 329 155 180 146 91 323 254 167 199 172 141 103 141 113 111 115 103 76 61 54 48 42
88 120 300 135 96 15 44 56 78 103 69 64 85 72 73 59 54 70 58 80 56 335 115 276 173 213 216 182 241 236 215 205 127 106 274 189 100 136 116 69 27 11 53 34 21